Home   Weather   San Diego   Past weeks

Flag for USA Past Weather in San Diego, California, USA — Yesterday and Last 2 Weeks

66 °F

Mostly cloudy.

Feels Like: 66 °F
Forecast: 65 / 76 °F
Wind: 5 mph from East

Location: San Diego - North Island

Current Time: Oct 27, 2016 at 11:38:04 PM

Latest Report: Oct 27, 2016 at 10:52 PM

Visibility: 9 mi

Pressure: 29.88 "Hg

Humidity: 87%

Dew Point: 62 °F

Location of San DiegoLocation

Past Weather in San Diego — Graph


San Diego Temperature Yesterday

Maximum temperature yesterday: 71 °F (at 11:52 AM)
Minimum temperature yesterday: 59 °F (at 2:52 AM)
Average temperature yesterday: 65 °F

High & Low Weather Summary for the Past Weeks

High89 °F (Oct 20, 12:52 PM)97% (Oct 19, 6:52 PM)30.11 "Hg (Oct 19, 6:52 PM)
Low57 °F (Oct 19, 4:52 AM)11% (Oct 20, 4:52 PM)29.82 "Hg (Oct 21, 3:52 PM)
Average67 °F74%29.96 "Hg
* Reported Oct 12 9:52 PM — Oct 27 9:52 PM, San Diego, Weather by CustomWeather, © 2016

Note: Actual official high and low records may vary slightly from our data, if they occured in-between our weather recording intervals... More about our weather records


San Diego Weather History for the Previous 24 Hours

Scroll right to see more
Time TempWeatherWind HumidityBarometerVisibility
9:52 PM
Thu, Oct 27
67 °FMostly cloudy.12 mph87%29.88 "Hg9 mi
8:52 PM67 °FMostly cloudy.12 mph90%29.89 "Hg9 mi
7:52 PM68 °FOvercast.8 mph76%29.86 "Hg9 mi
6:52 PM70 °FPassing clouds.5 mph61%29.85 "Hg10 mi
5:52 PM71 °FPartly sunny.No wind61%29.84 "Hg10 mi
4:52 PM70 °FBroken clouds.7 mph68%29.85 "Hg10 mi
3:52 PM72 °FPartly sunny.7 mph61%29.85 "Hg10 mi
2:52 PM71 °FPartly sunny.14 mph63%29.88 "Hg10 mi
1:52 PM71 °FPartly sunny.8 mph68%29.90 "Hg10 mi
12:52 PM70 °FBroken clouds.8 mph68%29.93 "Hg10 mi
11:52 AM68 °FBroken clouds.7 mph76%29.95 "Hg9 mi
10:52 AM66 °FBroken clouds.No wind84%29.98 "Hg7 mi
9:52 AM66 °FPartly sunny.No wind81%29.99 "Hg8 mi
8:52 AM64 °FPartly sunny.5 mph90%29.99 "Hg9 mi
7:52 AM61 °FPartly sunny.3 mph93%29.97 "Hg9 mi
6:52 AM61 °FPassing clouds.6 mph93%29.96 "Hg7 mi
5:52 AM60 °FPassing clouds.No wind96%29.95 "Hg8 mi
4:52 AM62 °FPassing clouds.7 mph93%29.95 "Hg8 mi
3:52 AM63 °FPassing clouds.6 mph93%29.96 "Hg8 mi
2:52 AM63 °FPassing clouds.6 mph93%29.96 "Hg8 mi
1:52 AM62 °FPassing clouds.3 mph93%29.96 "Hg8 mi
12:52 AM63 °FPassing clouds.7 mph90%29.97 "Hg8 mi
11:52 PM
Wed, Oct 26
63 °FPassing clouds.7 mph93%29.98 "Hg8 mi
Weather by CustomWeather, © 2016

See weather overviewHow to use our weather pages